Location: Klein M�hlingen
(51.9472°N, 11.7453°E)
Time: 09:29:18
(UTC+00:00)

Envisat - Pass Details

Date: 27 September 2021
Orbit: 764 x 766 km, 98.2° (Epoch: 26 October)

Event Time Altitude Azimuth Distance (km) Brightness Sun altitude
Rises 04:20:12 0° 16° (NNE) 3,246 6.6 -8.1°
Reaches altitude 10° 04:22:32 10° 19° (NNE) 2,315 5.9 -7.7°
Maximum altitude 04:27:37 65° 102° (ESE) 844 3.6 -7.0°
Drops below altitude 10° 04:32:39 10° 184° (S) 2,297 5.4 -6.2°
Sets 04:34:58 0° 188° (S) 3,218 6.1 -5.8°
